When you browse on this site, cookies collect data to enhance your experience and personalize the content and advertising you see.
Visit our Privacy Policy to learn more. By continuing to use the site, you agree to this use of cookies and data.
  • In Spain
  • List of Countries
  • For 7 days
  • Water Temperature
  • Satellite Maps
  • Weather Map
  • Weather Widgets
  • user-avatar
    Login

    Hourly Weather Bobyri

    Today, 17 July, Wednesday

    Time Temperature Precipitation Wind Pressure Humidity
    00:00 +11°C° 0 mm 1 mps 735 mmHg 90%
    01:00 +10°C° 0 mm 0 mps 735 mmHg 90%
    02:00 +10°C° 0 mm 0 mps 735 mmHg 90%
    03:00 +12°C° 0 mm 1 mps 735 mmHg 90%
    04:00 +12°C° 0 mm 2 mps 735 mmHg 90%
    05:00 +12°C° 0 mm 2 mps 735 mmHg 90%
    06:00 +14°C° 0 mm 2 mps 734 mmHg 87%
    07:00 +15°C° 0 mm 2 mps 734 mmHg 84%
    08:00 +16°C° 0 mm 1 mps 734 mmHg 80%
    09:00 +16°C° 0.4 mm 1 mps 734 mmHg 80%
    10:00 +17°C° 0.4 mm 2 mps 734 mmHg 79%
    11:00 +18°C° 0.4 mm 2 mps 734 mmHg 79%
    12:00 +18°C° 0.2 mm 2 mps 734 mmHg 77%
    13:00 +19°C° 0.2 mm 1 mps 734 mmHg 75%
    14:00 +20°C° 0.2 mm 1 mps 733 mmHg 72%
    15:00 +20°C° 0 mm 1 mps 733 mmHg 74%
    16:00 +20°C° 0 mm 1 mps 733 mmHg 75%
    17:00 +20°C° 0 mm 1 mps 733 mmHg 76%
    18:00 +19°C° 0.2 mm 1 mps 733 mmHg 78%
    19:00 +18°C° 0.2 mm 1 mps 733 mmHg 81%
    20:00 +15°C° 0.2 mm 1 mps 733 mmHg 83%
    21:00 +15°C° 0.1 mm 1 mps 733 mmHg 84%
    22:00 +15°C° 0.1 mm 1 mps 733 mmHg 84%
    23:00 +14°C° 0.1 mm 1 mps 733 mmHg 85%

    Tomorrow, 18 July, Thursday

    Time Temperature Precipitation Wind Pressure Humidity
    00:00 +14°C° 0.1 mm 1 mps 733 mmHg 86%
    01:00 +14°C° 0.1 mm 1 mps 732 mmHg 88%
    02:00 +13°C° 0.1 mm 1 mps 732 mmHg 89%
    03:00 +13°C° 0.1 mm 1 mps 732 mmHg 90%
    04:00 +13°C° 0.1 mm 1 mps 732 mmHg 91%
    05:00 +12°C° 0.1 mm 0 mps 732 mmHg 92%
    06:00 +14°C° 0.2 mm 1 mps 732 mmHg 91%
    07:00 +15°C° 0.2 mm 1 mps 732 mmHg 89%
    08:00 +16°C° 0.2 mm 1 mps 732 mmHg 88%
    09:00 +16°C° 0.9 mm 2 mps 732 mmHg 88%
    10:00 +16°C° 0.9 mm 3 mps 732 mmHg 89%
    11:00 +15°C° 0.9 mm 4 mps 732 mmHg 89%
    12:00 +15°C° 0.3 mm 4 mps 732 mmHg 88%
    13:00 +15°C° 0.3 mm 4 mps 732 mmHg 88%
    14:00 +15°C° 0.3 mm 5 mps 732 mmHg 87%
    15:00 +15°C° 0.1 mm 4 mps 732 mmHg 89%
    16:00 +15°C° 0.1 mm 4 mps 733 mmHg 90%
    17:00 +15°C° 0.1 mm 4 mps 733 mmHg 92%
    18:00 +14°C° 0.4 mm 3 mps 733 mmHg 93%
    19:00 +14°C° 0.4 mm 3 mps 733 mmHg 95%
    20:00 +14°C° 0.4 mm 3 mps 733 mmHg 97%
    21:00 +13°C° 0.1 mm 3 mps 733 mmHg 97%
    22:00 +13°C° 0.1 mm 3 mps 733 mmHg 97%
    23:00 +13°C° 0.1 mm 3 mps 733 mmHg 97%

    Day after tomorrow, 19 July, Friday

    Time Temperature Precipitation Wind Pressure Humidity
    00:00 +13°C° 0.4 mm 4 mps 733 mmHg 97%
    01:00 +13°C° 0.4 mm 4 mps 733 mmHg 97%
    02:00 +13°C° 0.4 mm 5 mps 733 mmHg 97%
    03:00 +13°C° 0.2 mm 5 mps 734 mmHg 97%
    04:00 +14°C° 0.2 mm 5 mps 734 mmHg 97%
    05:00 +14°C° 0.2 mm 5 mps 734 mmHg 96%
    06:00 +14°C° 0.1 mm 5 mps 734 mmHg 95%
    07:00 +14°C° 0.1 mm 6 mps 734 mmHg 94%
    08:00 +14°C° 0.1 mm 6 mps 735 mmHg 93%
    09:00 +15°C° 0.1 mm 6 mps 735 mmHg 91%
    10:00 +15°C° 0.1 mm 6 mps 736 mmHg 89%
    11:00 +15°C° 0.1 mm 6 mps 736 mmHg 88%
    12:00 +16°C° 0.6 mm 6 mps 736 mmHg 86%
    13:00 +17°C° 0.6 mm 7 mps 736 mmHg 84%
    14:00 +18°C° 0.6 mm 7 mps 737 mmHg 83%
    15:00 +17°C° 0.4 mm 6 mps 737 mmHg 83%
    16:00 +17°C° 0.4 mm 6 mps 737 mmHg 84%
    17:00 +17°C° 0.4 mm 6 mps 737 mmHg 84%
    18:00 +16°C° 0 mm 5 mps 738 mmHg 87%
    19:00 +15°C° 0 mm 4 mps 738 mmHg 89%
    20:00 +14°C° 0 mm 3 mps 738 mmHg 91%
    21:00 +14°C° 0 mm 3 mps 738 mmHg 92%
    22:00 +14°C° 0 mm 4 mps 739 mmHg 92%
    23:00 +13°C° 0 mm 4 mps 739 mmHg 93%

    20 July, Saturday

    Time Temperature Precipitation Wind Pressure Humidity
    00:00 +13°C° 0 mm 4 mps 739 mmHg 93%
    01:00 +13°C° 0 mm 4 mps 739 mmHg 93%
    02:00 +12°C° 0 mm 4 mps 739 mmHg 94%
    03:00 +12°C° 0 mm 4 mps 740 mmHg 94%
    04:00 +12°C° 0 mm 4 mps 740 mmHg 95%
    05:00 +12°C° 0 mm 3 mps 740 mmHg 95%
    06:00 +13°C° 0 mm 4 mps 740 mmHg 90%
    07:00 +15°C° 0 mm 4 mps 740 mmHg 86%
    08:00 +17°C° 0 mm 4 mps 741 mmHg 81%
    09:00 +17°C° 0.2 mm 5 mps 741 mmHg 79%
    10:00 +19°C° 0.2 mm 5 mps 741 mmHg 77%
    11:00 +20°C° 0.2 mm 6 mps 742 mmHg 74%
    12:00 +20°C° 0.6 mm 6 mps 742 mmHg 75%
    13:00 +20°C° 0.6 mm 6 mps 742 mmHg 75%
    14:00 +21°C° 0.6 mm 5 mps 742 mmHg 76%
    15:00 +20°C° 0.6 mm 5 mps 742 mmHg 78%
    16:00 +20°C° 0.6 mm 5 mps 742 mmHg 80%
    17:00 +20°C° 0.6 mm 4 mps 742 mmHg 83%
    18:00 +19°C° 0.1 mm 4 mps 742 mmHg 86%
    19:00 +17°C° 0.1 mm 3 mps 743 mmHg 89%
    20:00 +16°C° 0.1 mm 2 mps 743 mmHg 92%
    21:00 +16°C° 0 mm 2 mps 743 mmHg 93%
    22:00 +15°C° 0 mm 2 mps 743 mmHg 93%
    23:00 +14°C° 0 mm 2 mps 743 mmHg 93%

    21 July, Sunday

    Time Temperature Precipitation Wind Pressure Humidity
    00:00 +14°C° 0 mm 2 mps 743 mmHg 94%
    01:00 +14°C° 0 mm 2 mps 743 mmHg 94%
    02:00 +13°C° 0 mm 2 mps 743 mmHg 95%
    03:00 +13°C° 0 mm 2 mps 744 mmHg 95%
    04:00 +13°C° 0 mm 2 mps 744 mmHg 96%
    05:00 +13°C° 0 mm 2 mps 744 mmHg 96%
    06:00 +15°C° 0 mm 2 mps 744 mmHg 93%
    07:00 +16°C° 0 mm 2 mps 744 mmHg 89%
    08:00 +18°C° 0 mm 3 mps 744 mmHg 85%
    09:00 +19°C° 0 mm 3 mps 744 mmHg 79%
    10:00 +20°C° 0 mm 3 mps 744 mmHg 73%
    11:00 +21°C° 0 mm 3 mps 744 mmHg 66%
    12:00 +21°C° 0 mm 3 mps 744 mmHg 66%
    13:00 +22°C° 0 mm 3 mps 744 mmHg 65%
    14:00 +22°C° 0 mm 4 mps 744 mmHg 65%
    15:00 +22°C° 0.1 mm 4 mps 744 mmHg 68%
    16:00 +22°C° 0.1 mm 4 mps 744 mmHg 71%
    17:00 +21°C° 0.1 mm 3 mps 744 mmHg 74%
    18:00 +20°C° 0 mm 3 mps 744 mmHg 79%
    19:00 +18°C° 0 mm 2 mps 744 mmHg 83%
    20:00 +18°C° 0 mm 1 mps 744 mmHg 88%
    21:00 +16°C° 0 mm 1 mps 744 mmHg 89%
    22:00 +15°C° 0 mm 1 mps 744 mmHg 89%
    23:00 +15°C° 0 mm 1 mps 744 mmHg 90%

    22 July, Monday

    Time Temperature Precipitation Wind Pressure Humidity
    00:00 +14°C° 0 mm 1 mps 744 mmHg 90%
    01:00 +14°C° 0 mm 1 mps 744 mmHg 91%
    02:00 +13°C° 0 mm 1 mps 744 mmHg 91%
    03:00 +13°C° 0 mm 1 mps 744 mmHg 92%
    04:00 +13°C° 0 mm 1 mps 744 mmHg 92%
    05:00 +13°C° 0 mm 1 mps 744 mmHg 93%
    06:00 +15°C° 0 mm 1 mps 744 mmHg 89%
    07:00 +18°C° 0 mm 1 mps 744 mmHg 84%
    08:00 +18°C° 0 mm 2 mps 744 mmHg 79%
    09:00 +21°C° 0 mm 1 mps 744 mmHg 74%
    10:00 +22°C° 0 mm 1 mps 744 mmHg 69%
    11:00 +23°C° 0 mm 1 mps 744 mmHg 64%
    12:00 +24°C° 0 mm 1 mps 744 mmHg 61%
    13:00 +24°C° 0 mm 1 mps 744 mmHg 58%
    14:00 +25°C° 0 mm 1 mps 743 mmHg 55%
    15:00 +25°C° 0 mm 1 mps 743 mmHg 57%
    16:00 +24°C° 0 mm 1 mps 743 mmHg 60%
    17:00 +24°C° 0 mm 1 mps 743 mmHg 62%
    18:00 +21°C° 0 mm 2 mps 743 mmHg 66%
    19:00 +19°C° 0 mm 2 mps 743 mmHg 70%
    20:00 +17°C° 0 mm 2 mps 743 mmHg 73%
    21:00 +16°C° 0 mm 2 mps 743 mmHg 76%
    22:00 +15°C° 0 mm 2 mps 743 mmHg 79%
    23:00 +15°C° 0 mm 2 mps 743 mmHg 81%
    Show more